Wind_Speed
14 14 17 19 20 22 22 18 14 18 22 24 24 27 29 26 30 35 40 29 27 26 31 37 39 40 41 42 40 39 29 27 25 29 26 25 25 25 25 23 21 18 17 13 13
16 16 19 22 23 22 19 15 14 14 14 16 16 17 23 26 32 37 37 30 27 28 31 36 38 40 42 43 41 40 29 23 30 31 28 25 25 25 25 23 21 17 16 14 13
18 19 18 20 25 18 16 14 13 9 8 8 9 12 21 29 30 35 35 32 29 29 29 34 35 37 42 43 43 43 28 25 32 31 22 24 24 25 24 22 18 14 15 15 11
19 19 18 21 20 21 17 14 10 7 3 3 2 16 19 23 24 34 33 31 33 28 30 33 35 38 42 44 44 35 32 33 28 29 26 22 23 27 25 21 17 17 17 15 14
18 18 19 19 17 17 16 17 10 5 1 4 11 14 16 20 24 17 30 29 35 31 32 32 35 35 35 37 41 28 34 32 28 24 23 22 24 26 24 21 16 17 17 16 16
16 18 20 21 19 17 15 11 16 8 1 3 6 9 16 19 24 11 21 29 28 36 30 31 34 25 25 33 31 28 30 30 27 22 22 23 25 25 24 21 17 17 18 16 15
15 17 19 20 22 19 19 14 14 12 7 7 8 12 13 15 18 20 17 21 26 30 29 28 32 19 27 31 30 23 29 28 26 26 23 23 24 25 22 20 18 17 18 17 16
14 16 18 17 16 18 20 12 15 13 12 13 13 12 13 17 14 18 17 17 21 27 28 27 33 18 24 31 27 26 25 27 28 26 25 25 20 25 23 19 19 20 19 17 16
12 15 18 16 22 21 26 27 17 14 22 16 14 13 14 19 17 18 19 21 21 30 29 32 31 19 28 28 29 31 22 22 25 27 26 24 16 24 23 21 20 20 20 20 18
10 13 16 17 20 23 23 24 28 26 20 18 12 15 16 10 17 18 24 23 31 30 32 30 24 20 30 30 28 27 21 20 21 25 24 24 21 19 23 22 21 18 18 18 18
12 14 16 18 19 20 18 23 22 25 20 19 22 12 19 23 23 28 29 28 29 33 29 29 16 24 30 26 19 20 17 23 23 23 23 23 22 18 18 20 20 19 19 18 18
13 16 16 17 18 16 15 15 24 22 18 18 13 14 7 23 26 20 22 20 26 28 25 21 13 24 28 27 16 22 22 23 24 23 23 20 22 19 15 15 18 20 20 19 18
9 8 8 9 11 12 16 8 11 17 18 15 13 7 29 17 21 18 15 25 28 22 20 16 16 25 27 22 21 24 19 24 22 20 20 16 18 20 20 19 18 18 18 19 20
2 3 4 7 13 19 21 13 4 8 10 16 9 10 16 22 13 13 18 23 16 22 16 11 19 24 24 25 23 24 21 20 18 18 8 13 6 19 23 22 21 21 21 21 21
9 9 11 16 20 24 17 10 3 6 3 7 9 10 8 11 19 16 21 13 20 18 10 10 19 21 23 22 22 20 20 19 15 15 10 10 6 14 18 21 23 24 24 24 24
11 13 17 19 18 12 7 7 5 4 5 6 7 6 7 13 21 17 14 15 13 7 10 17 18 17 22 21 18 17 18 14 10 8 3 10 9 10 17 20 22 22 22 24 24
16 14 11 10 9 7 7 5 5 7 4 9 10 10 13 14 14 14 13 15 9 12 21 17 13 15 21 18 17 22 22 5 2 3 2 7 10 23 10 13 15 18 22 23 23
18 16 13 12 9 7 7 10 11 10 12 13 13 10 13 11 9 12 11 7 7 17 22 7 7 15 20 19 15 25 16 5 5 5 3 9 8 9 13 21 23 20 20 21 22
19 18 13 12 14 16 15 17 9 11 13 13 14 13 10 6 8 8 5 9 14 19 5 8 8 10 14 16 19 20 8 4 6 4 0 5 7 11 12 13 13 15 17 18 18
17 17 14 12 11 11 17 20 15 17 12 5 4 9 11 10 7 4 3 10 11 8 9 8 10 13 14 12 11 12 13 3 2 2 3 2 6 9 2 4 7 8 9 12 14
14 16 15 13 15 17 22 20 12 7 6 6 11 11 8 6 5 5 6 10 8 9 11 8 7 10 12 7 10 8 8 3 3 2 1 3 1 0 1 2 6 6 6 8 12
14 14 12 10 11 12 14 13 12 12 10 9 9 7 6 5 8 7 9 6 7 9 8 5 8 11 11 8 9 10 9 9 3 2 4 2 8 14 14 10 1 10 10 11 15
10 12 10 8 8 10 11 10 10 7 6 6 6 4 4 5 5 7 8 9 5 5 4 5 6 8 4 4 9 11 13 13 13 10 10 3 5 0 2 8 18 24 23 19 19
10 8 8 8 8 6 5 6 6 6 6 5 6 6 4 4 6 4 6 4 5 4 4 4 5 4 3 5 5 5 5 9 14 9 10 19 21 24 26 26 27 28 26 23 22
9 9 8 7 6 5 5 4 5 5 5 4 4 4 4 3 4 6 6 4 2 1 0 1 1 3 4 6 8 10 12 14 18 20 15 19 28 28 27 25 27 28 28 30 30
6 6 6 7 6 6 5 4 4 4 4 4 4 3 2 3 3 3 1 1 1 2 3 4 4 4 6 9 11 14 15 19 22 24 28 27 27 13 17 20 19 19 19 20 24
4 5 4 4 4 5 5 5 4 4 3 3 3 2 2 1 1 2 2 3 3 4 4 3 3 4 3 5 10 14 11 15 18 14 14 18 18 14 13 14 15 16 18 18 18
Wind_Direction
328 334 333 324 319 316 310 314 304 285 278 272 266 258 245 228 220 213 217 217 213 213 209 199 196 200 202 203 203 204 200 210 212 214 213 214 210 205 202 206 211 217 228 231 231
347 348 352 349 329 315 317 324 320 305 296 290 277 254 225 216 213 212 212 206 205 208 207 200 196 197 200 199 200 199 205 204 209 215 220 216 213 208 206 211 217 223 224 222 222
351 350 1 359 10 8 356 335 320 318 290 273 260 227 205 200 206 207 207 205 202 204 204 198 196 197 201 199 199 201 204 207 212 216 216 215 215 208 211 217 221 221 213 216 226
356 353 353 0 7 10 357 346 333 350 301 244 261 186 186 198 204 207 203 204 201 208 202 197 195 193 198 198 198 198 199 203 209 213 215 212 215 210 210 218 219 217 211 214 218
7 6 14 9 18 16 7 7 355 347 311 188 178 177 187 189 199 203 207 203 203 206 201 196 195 187 194 195 196 194 197 202 206 211 210 210 210 210 212 212 217 213 215 219 224
14 18 24 24 15 3 6 9 14 326 324 180 166 178 178 196 203 182 196 208 206 209 199 192 192 176 191 196 192 198 196 202 203 207 206 206 207 206 209 212 216 212 217 220 222
17 18 24 30 21 18 14 19 347 340 243 189 174 185 184 188 199 214 225 209 218 184 177 187 181 170 190 190 187 187 197 200 202 206 204 203 205 208 210 213 216 213 217 222 228
15 22 30 38 21 19 14 2 13 51 53 189 195 183 199 198 192 197 211 227 236 231 165 171 169 167 174 185 177 180 188 190 200 203 205 201 209 210 213 215 221 220 222 228 231
20 33 26 49 51 52 37 44 43 48 64 64 67 160 198 203 202 213 235 235 224 159 156 163 167 169 173 176 172 178 185 187 187 196 203 200 213 216 219 219 224 225 228 233 235
36 36 64 58 53 53 46 46 50 47 44 50 53 68 88 162 178 163 140 164 152 151 152 165 172 178 176 172 178 182 174 178 184 190 201 204 213 219 221 221 224 225 228 234 240
58 79 80 70 63 53 39 45 53 55 56 74 70 69 80 103 110 116 129 135 146 150 158 164 180 180 175 177 181 177 175 177 188 193 201 208 212 219 220 220 222 225 232 237 242
86 95 89 81 66 40 29 39 44 53 66 72 28 86 90 119 107 118 134 138 154 152 157 165 190 176 174 175 183 181 180 182 185 193 198 209 217 222 220 220 222 227 233 239 245
95 90 85 55 43 35 23 13 62 56 61 53 75 54 106 89 103 119 130 153 150 138 147 166 189 175 172 169 176 178 180 182 184 186 199 211 230 229 232 233 234 236 239 245 250
7 33 12 4 344 345 349 4 260 88 66 48 32 59 80 97 100 119 146 138 133 139 145 155 190 170 165 168 173 175 185 186 190 185 185 207 241 237 239 240 243 246 251 254 257
295 300 310 316 321 325 337 11 72 157 68 15 48 108 58 116 128 130 130 126 138 142 150 144 178 170 169 158 163 164 168 174 177 188 195 214 233 246 244 243 248 252 254 257 259
349 313 298 303 320 336 19 59 90 107 46 38 71 122 106 109 126 123 135 145 151 163 126 152 165 165 173 178 179 174 162 159 168 177 216 217 209 251 247 252 252 251 253 253 254
11 6 3 5 2 14 42 86 78 60 98 67 90 101 127 131 136 131 137 154 138 118 124 139 160 151 160 156 165 167 155 115 127 188 239 209 219 239 245 245 245 248 249 253 256
20 21 29 34 26 30 58 80 72 81 101 106 101 107 120 117 111 144 144 155 172 136 123 125 141 145 153 156 164 167 174 174 162 179 160 205 231 243 240 242 248 252 256 257 256
25 31 40 55 59 75 94 95 104 99 111 114 109 110 107 97 115 124 105 110 124 136 123 132 138 148 155 157 155 181 190 146 98 96 199 219 262 260 259 255 251 254 257 256 257
30 41 49 57 78 87 103 96 108 113 121 121 87 116 119 122 127 133 83 123 132 135 135 137 131 157 155 158 170 177 188 174 190 130 236 254 275 250 253 294 272 276 274 270 267
34 47 55 76 93 105 93 96 88 75 97 96 116 125 92 94 104 113 121 131 108 122 122 124 141 161 157 172 173 163 188 184 161 178 302 316 329 63 83 358 313 301 302 295 279
37 53 52 84 101 99 96 91 88 86 91 88 126 122 110 103 77 86 140 143 116 108 108 96 124 137 176 185 190 204 207 208 215 212 216 228 272 270 275 286 337 319 313 289 278
40 53 61 63 84 97 99 86 77 83 110 122 125 100 92 74 93 105 116 142 121 103 105 111 127 118 143 217 219 222 228 231 235 247 239 240 258 109 257 295 307 301 294 282 279
30 43 56 61 76 76 72 68 70 84 94 123 132 131 120 88 67 103 119 127 129 133 133 133 149 135 132 138 142 194 227 239 235 236 250 249 265 276 284 291 289 290 287 283 281
23 34 46 53 53 61 70 68 65 80 80 95 111 120 127 129 120 121 133 128 105 92 171 215 213 214 234 252 257 258 259 259 254 258 253 273 282 299 301 289 289 289 285 280 272
3 24 35 43 49 54 60 72 75 71 96 92 110 98 98 81 77 93 138 165 195 206 202 213 230 230 248 250 258 264 257 254 255 257 268 282 288 302 292 284 282 288 289 285 272
322 340 10 33 42 51 52 54 58 68 82 109 111 108 94 67 18 335 306 292 286 292 297 292 297 323 297 283 295 292 276 256 267 281 286 293 310 316 317 314 315 303 305 305 292
Height
3089 3084 3080 3077 3073 3068 3064 3059 3055 3053 3051 3049 3049 3049 3052 3058 3063 3066 3068 3081 3087 3091 3094 3100 3107 3115 3122 3128 3134 3140 3146 3148 3153 3157 3161 3163 3166 3168 3170 3173 3175 3177 3178 3180 3180
3085 3080 3076 3071 3066 3062 3058 3053 3050 3048 3047 3046 3044 3043 3046 3052 3056 3060 3068 3076 3082 3086 3091 3096 3102 3110 3116 3122 3129 3135 3139 3145 3149 3153 3157 3161 3165 3167 3170 3171 3173 3174 3176 3177 3178
3082 3079 3074 3068 3061 3057 3054 3052 3049 3046 3043 3042 3041 3040 3043 3048 3053 3056 3064 3072 3078 3082 3087 3091 3098 3106 3112 3117 3123 3129 3136 3141 3146 3150 3155 3159 3162 3165 3167 3169 3171 3173 3174 3175 3176
3081 3077 3073 3067 3062 3057 3056 3051 3049 3044 3041 3040 3038 3040 3043 3047 3054 3055 3061 3069 3074 3079 3084 3088 3093 3099 3106 3112 3118 3126 3132 3138 3143 3148 3152 3156 3160 3162 3164 3166 3169 3170 3172 3174 3174
3081 3076 3072 3066 3061 3058 3056 3053 3049 3045 3042 3040 3039 3039 3042 3046 3051 3053 3059 3066 3072 3074 3080 3085 3091 3097 3104 3110 3118 3124 3131 3136 3141 3145 3150 3154 3157 3160 3162 3164 3166 3168 3170 3171 3173
3079 3076 3071 3066 3063 3061 3057 3054 3050 3047 3044 3042 3042 3042 3043 3048 3051 3053 3057 3063 3068 3073 3075 3083 3090 3099 3105 3109 3119 3123 3130 3135 3139 3143 3147 3151 3154 3157 3160 3162 3164 3166 3168 3169 3171
3079 3076 3073 3068 3064 3062 3058 3054 3050 3046 3042 3041 3041 3043 3045 3048 3049 3053 3056 3061 3066 3069 3075 3084 3091 3097 3101 3108 3116 3122 3129 3133 3137 3141 3144 3149 3152 3154 3158 3160 3162 3163 3165 3167 3168
3081 3076 3073 3071 3067 3064 3060 3055 3050 3046 3041 3040 3040 3042 3044 3045 3049 3051 3053 3058 3062 3067 3074 3084 3091 3095 3100 3106 3115 3121 3128 3131 3134 3138 3142 3147 3150 3152 3155 3157 3159 3161 3163 3164 3166
3081 3078 3074 3073 3071 3068 3063 3057 3052 3049 3046 3043 3041 3040 3041 3042 3045 3048 3051 3054 3059 3066 3074 3083 3089 3093 3099 3105 3114 3118 3122 3127 3131 3135 3140 3145 3147 3149 3152 3155 3156 3158 3160 3161 3163
3083 3080 3077 3076 3073 3071 3067 3062 3057 3053 3049 3047 3045 3045 3042 3039 3043 3046 3050 3054 3062 3070 3077 3084 3090 3093 3097 3103 3104 3112 3119 3124 3127 3133 3138 3142 3144 3146 3149 3152 3154 3155 3157 3158 3159
3084 3081 3079 3078 3076 3074 3071 3068 3065 3061 3056 3053 3053 3049 3046 3047 3047 3051 3056 3061 3066 3073 3079 3085 3090 3091 3095 3104 3110 3114 3119 3124 3128 3132 3137 3140 3143 3144 3146 3148 3150 3152 3154 3155 3156
3086 3084 3082 3079 3078 3076 3075 3072 3068 3067 3063 3059 3055 3054 3051 3053 3055 3058 3062 3066 3070 3075 3081 3089 3092 3093 3097 3104 3110 3115 3118 3122 3126 3130 3135 3138 3141 3142 3144 3145 3147 3149 3150 3152 3153
3086 3085 3083 3081 3079 3078 3076 3075 3073 3070 3068 3066 3065 3059 3061 3063 3064 3066 3068 3071 3075 3079 3085 3090 3093 3094 3098 3104 3109 3114 3118 3121 3126 3129 3134 3138 3139 3139 3141 3143 3144 3145 3147 3148 3149
3087 3084 3082 3081 3080 3077 3075 3073 3073 3073 3071 3073 3070 3067 3067 3068 3071 3072 3074 3077 3079 3082 3086 3091 3095 3096 3100 3104 3109 3113 3118 3123 3126 3130 3133 3136 3136 3136 3137 3139 3140 3141 3143 3143 3144
3088 3086 3082 3079 3078 3075 3074 3071 3071 3073 3074 3077 3074 3073 3073 3072 3076 3076 3077 3081 3083 3085 3088 3092 3096 3098 3101 3104 3109 3113 3118 3123 3126 3129 3132 3134 3137 3132 3133 3133 3135 3137 3138 3138 3138
3087 3084 3081 3079 3076 3074 3072 3071 3073 3076 3078 3080 3077 3077 3078 3077 3078 3079 3082 3085 3086 3086 3087 3092 3098 3099 3101 3105 3109 3114 3119 3124 3127 3129 3132 3131 3134 3128 3128 3129 3130 3131 3132 3132 3133
3087 3083 3080 3077 3075 3074 3072 3072 3075 3076 3083 3083 3081 3080 3081 3082 3082 3083 3084 3087 3088 3090 3090 3096 3100 3099 3101 3106 3110 3114 3119 3125 3130 3130 3127 3127 3130 3124 3124 3125 3126 3126 3126 3127 3127
3087 3084 3080 3078 3076 3074 3073 3074 3075 3082 3081 3083 3083 3084 3085 3086 3087 3087 3088 3089 3089 3090 3093 3099 3105 3102 3102 3106 3109 3113 3117 3118 3120 3123 3123 3125 3121 3117 3119 3120 3121 3122 3122 3122 3122
3089 3086 3083 3080 3079 3077 3077 3076 3082 3084 3086 3086 3086 3087 3088 3089 3089 3090 3090 3090 3091 3092 3096 3099 3102 3102 3104 3107 3111 3115 3117 3118 3118 3121 3123 3120 3117 3117 3116 3117 3118 3118 3118 3119 3119
3093 3088 3085 3084 3082 3082 3083 3080 3084 3086 3087 3088 3088 3088 3089 3090 3091 3091 3091 3092 3093 3094 3096 3098 3102 3104 3106 3109 3112 3113 3116 3119 3119 3122 3120 3117 3115 3113 3114 3115 3115 3116 3116 3116 3116
3095 3092 3089 3087 3087 3087 3084 3086 3088 3089 3089 3089 3089 3091 3092 3092 3092 3092 3094 3096 3095 3096 3097 3099 3101 3107 3108 3110 3112 3114 3115 3117 3119 3120 3119 3117 3115 3114 3114 3114 3114 3114 3114 3114 3113
3097 3095 3094 3092 3092 3090 3089 3089 3090 3090 3091 3092 3093 3093 3093 3093 3093 3093 3095 3096 3097 3097 3098 3099 3101 3105 3108 3110 3111 3113 3114 3116 3118 3120 3119 3120 3116 3114 3113 3112 3112 3112 3112 3111 3109
3099 3098 3097 3095 3095 3093 3093 3093 3092 3092 3092 3093 3094 3095 3095 3094 3095 3095 3096 3097 3098 3098 3100 3101 3103 3106 3110 3112 3111 3111 3113 3114 3116 3117 3116 3118 3114 3111 3111 3111 3110 3109 3107 3105 3104
3101 3100 3099 3098 3096 3096 3095 3095 3094 3094 3094 3094 3094 3095 3095 3096 3096 3097 3097 3098 3098 3099 3100 3102 3102 3103 3105 3106 3108 3110 3111 3112 3114 3114 3112 3109 3109 3110 3108 3107 3104 3101 3100 3099 3098
3102 3101 3100 3099 3098 3097 3097 3096 3096 3096 3096 3096 3097 3096 3097 3097 3097 3097 3097 3098 3100 3100 3101 3102 3102 3103 3104 3105 3106 3107 3107 3107 3107 3109 3108 3104 3101 3104 3102 3098 3096 3093 3091 3090 3089
3103 3102 3100 3099 3099 3098 3098 3097 3097 3097 3097 3097 3097 3097 3098 3098 3099 3099 3099 3099 3099 3100 3100 3100 3101 3101 3102 3102 3102 3101 3101 3100 3100 3100 3098 3098 3095 3097 3094 3091 3089 3086 3083 3081 3081
3102 3101 3101 3100 3099 3099 3099 3099 3098 3098 3098 3098 3098 3098 3098 3099 3099 3099 3099 3100 3100 3101 3101 3101 3102 3102 3101 3101 3100 3099 3095 3096 3097 3098 3097 3095 3094 3091 3089 3086 3084 3083 3080 3078 3076